Regional Weather Roundup
Issued by NWS Mt. Holly, NJ

Home | Current Version | Previous Version | Text Only | Print | Product List | Glossary On
Versions: 1 2 3 4 5 6 7 8 9 10 11 12 13 14 15 16 17 18 19 20 21 22 23 24 25 26 27 28 29 30 31 32 33 34 35 36 37 38 39 40 41 42 43 44 45 46 47 48 49 50
000
ASUS41 KPHI 192210
RWRPHI

REGIONAL WEATHER ROUNDUP
NATIONAL WEATHER SERVICE MOUNT HOLLY NJ
600 PM EDT FRI SEP 19 2014

NOTE:  "FAIR" INDICATES FEW OR NO CLOUDS BELOW 12,000 FEET WITH NO
SIGNIFICANT WEATHER AND/OR OBSTRUCTIONS TO VISIBILITY.

 * = STATION DOES NOT REPORT PRECIPITATION (E.G. RAIN, SNOW, ETC.)
        OR FOG.

NJZ015>026-192300-
SOUTHERN NEW JERSEY

CITY           SKY/WX    TMP DP  RH WIND       PRES   REMARKS
POMONA         MOSUNNY   65  57  75 NE9       30.32S
RIO GRANDE*    MOSUNNY   68  55  64 NE15      30.31S
MILLVILLE      SUNNY     66  55  67 E14       30.31R
WRIGHTSTOWN    PTSUNNY   61  54  77 E8        30.31S
MOUNT HOLLY    MOSUNNY   63  53  70 E8        30.33S
TRENTON        MOSUNNY   62  50  64 SE9       30.32S

$$
NJZ001>014-192300-
NORTHERN NEW JERSEY

CITY           SKY/WX    TMP DP  RH WIND       PRES   REMARKS
SUSSEX         MOSUNNY   65  45  48 SE7       30.31S
ANDOVER*         N/A     62  47  57 VRB3      30.31F
MORRISTOWN     MOSUNNY   64  50  59 S9        30.33S
NEWARK         MOSUNNY   63  49  60 SE9       30.34R
TETERBORO      SUNNY     64  44  48 E5        30.33R
CALDWELL       CLOUDY    63  47  55 S9        30.33S
SOMERVILLE     SUNNY     64  48  56 S9        30.31S
ALLAIRE*       CLOUDY    61  48  63 E9        30.34S
TOMS RIVER*    CLOUDY    61  54  77 CALM      30.35R

$$
PAZ043-044-047-054-055-060>062-066>071-192300-
EASTERN PENNSYLVANIA

CITY           SKY/WX    TMP DP  RH WIND       PRES   REMARKS
PHILADELPHIA   MOSUNNY   65  53  65 SE13      30.32S
NORTH PHILA    SUNNY     66  50  56 E13       30.34S
BLUE BELL      MOSUNNY   64  52  63 E7        30.31S
DOYLESTOWN     MOSUNNY   62  50  64 S5        30.31S
QUAKERTOWN*    SUNNY     64  50  59 SE9G16    30.31S
POTTSTOWN      PTSUNNY   66  50  56 VRB6      30.31S
LANCASTER      MOSUNNY   67  52  58 SE10      30.28S
COATESVILLE    SUNNY     64  54  68 SE6       30.30S
READING        SUNNY     68  50  52 SE7       30.28S
ALLENTOWN      PTSUNNY   68  47  46 SE12      30.29F
MOUNT POCONO   MOSUNNY   58  47  66 SE9       30.31S
HAZLETON       SUNNY     61  50  67 SE10      30.31F
WILKES BARRE   SUNNY     66  46  48 S8        30.27F

$$
DEZALL-MDZ008-012-015-019-020-192300-
DELAWARE AND EASTERN MARYLAND

CITY           SKY/WX    TMP DP  RH WIND       PRES   REMARKS
WILMINGTON     MOSUNNY   68  54  60 E9        30.30S
DOVER          MOSUNNY   68  58  72 E14       30.28R
GEORGETOWN     MOSUNNY   70  59  68 E17G25    30.29S
EASTON         MOSUNNY   72  59  64 E8G17     30.31R
PATUXENT       PTSUNNY   71  58  63 E16       30.26R
OCEAN CITY     SUNNY     70  61  73 NE12      30.27S
WALLOPS ISLAND MOSUNNY   73  57  57 E6        30.27R
CAMBRIDGE      SUNNY     72  57  60 E9G17     30.26S
SALISBURY      MOSUNNY   73  60  63 E10       30.27S

$$
PAZ001-021-NYZ056-072-MDZ011-DCZ001-192300-
OTHER NEARBY LOCATIONS

CITY           SKY/WX    TMP DP  RH WIND       PRES   REMARKS
HARRISBURG     PTSUNNY   70  54  56 SE14      30.25F
STATE COLLEGE  PTSUNNY   64  50  59 S9        30.25S
WILLIAMSPORT   MOSUNNY   68  49  50 SE9       30.24R
BINGHAMTON     SUNNY     60  42  51 S6        30.27S
NEW YORK CITY  SUNNY     63  44  50 VRB7      30.36S
BALTIMORE      PTSUNNY   70  57  63 E10       30.26S
WASHINGTON DC  PTSUNNY   75  51  43 SE7       30.26R

$$



USA.gov is the U.S. government's official web portal to all federal, state and local government web resources and services.